TimeEST,TemperatureF,Dew PointF,Humidity,Sea Level PressureIn,VisibilityMPH,Wind Direction,Wind SpeedMPH,Gust SpeedMPH,PrecipitationIn,Events,Conditions,WindDirDegrees,DateUTC
12:15 AM,26.4,17.4,69,30.05,10.0,Calm,Calm,-,N/A,,Clear,0,2013-03-05 05:15:00
12:35 AM,27.3,17.4,66,30.05,10.0,North,3.5,-,N/A,,Clear,10,2013-03-05 05:35:00
12:55 AM,31.5,16.7,54,30.06,10.0,Calm,Calm,-,N/A,,Clear,0,2013-03-05 05:55:00
1:35 AM,27.7,18.3,68,30.05,10.0,West,3.5,-,N/A,,Clear,270,2013-03-05 06:35:00
1:55 AM,25.7,18.7,75,30.06,10.0,Calm,Calm,-,N/A,,Clear,0,2013-03-05 06:55:00
2:15 AM,27.3,17.8,67,30.05,10.0,Calm,Calm,-,N/A,,Clear,0,2013-03-05 07:15:00
2:35 AM,26.4,18.7,73,30.05,10.0,Calm,Calm,-,N/A,,Clear,0,2013-03-05 07:35:00
2:55 AM,25.3,18.5,75,30.05,10.0,Calm,Calm,-,N/A,,Clear,0,2013-03-05 07:55:00
3:15 AM,24.4,17.6,75,30.05,10.0,Calm,Calm,-,N/A,,Clear,0,2013-03-05 08:15:00
3:55 AM,23.5,18.9,82,30.07,10.0,Calm,Calm,-,N/A,,Clear,0,2013-03-05 08:55:00
4:15 AM,23.4,17.8,79,30.08,10.0,Calm,Calm,-,N/A,,Clear,0,2013-03-05 09:15:00
4:35 AM,23.0,19.4,86,30.08,10.0,Calm,Calm,-,N/A,,Clear,0,2013-03-05 09:35:00
4:55 AM,22.5,18.7,85,30.07,10.0,Calm,Calm,-,N/A,,Clear,0,2013-03-05 09:55:00
5:15 AM,21.7,17.8,85,30.07,10.0,Calm,Calm,-,N/A,,Clear,0,2013-03-05 10:15:00
5:35 AM,23.4,19.0,84,30.08,10.0,Calm,Calm,-,N/A,,Clear,0,2013-03-05 10:35:00
5:55 AM,23.5,19.2,84,30.08,10.0,Calm,Calm,-,N/A,,Clear,0,2013-03-05 10:55:00
6:15 AM,23.5,18.7,82,30.08,10.0,Calm,Calm,-,N/A,,Clear,0,2013-03-05 11:15:00
6:35 AM,23.9,17.8,77,30.08,10.0,Calm,Calm,-,N/A,,Clear,0,2013-03-05 11:35:00
7:15 AM,25.7,18.5,74,30.10,10.0,Calm,Calm,-,N/A,,Clear,0,2013-03-05 12:15:00
7:35 AM,26.2,21.0,81,30.10,10.0,Calm,Calm,-,N/A,,Clear,0,2013-03-05 12:35:00
8:15 AM,30.7,20.7,66,30.10,10.0,Calm,Calm,-,N/A,,Scattered Clouds,0,2013-03-05 13:15:00
8:35 AM,32.7,22.8,67,30.10,10.0,Calm,Calm,-,N/A,,Overcast,0,2013-03-05 13:35:00
8:55 AM,34.9,24.8,67,30.10,10.0,Calm,Calm,-,N/A,,Scattered Clouds,0,2013-03-05 13:55:00
9:15 AM,37.4,23.7,58,30.10,10.0,Calm,Calm,-,N/A,,Clear,0,2013-03-05 14:15:00
9:35 AM,38.8,19.4,46,30.09,10.0,Calm,Calm,-,N/A,,Clear,0,2013-03-05 14:35:00
9:55 AM,40.1,16.9,39,30.09,10.0,Calm,Calm,-,N/A,,Clear,0,2013-03-05 14:55:00
10:15 AM,41.2,16.0,36,30.08,10.0,North,3.5,-,N/A,,Clear,350,2013-03-05 15:15:00
10:35 AM,42.8,17.2,36,30.07,10.0,Calm,Calm,-,N/A,,Mostly Cloudy,0,2013-03-05 15:35:00
10:55 AM,42.3,16.5,35,30.06,10.0,Calm,Calm,-,N/A,,Overcast,0,2013-03-05 15:55:00
11:15 AM,43.3,16.5,34,30.05,10.0,Calm,Calm,-,N/A,,Overcast,0,2013-03-05 16:15:00
11:35 AM,44.1,17.2,34,30.05,10.0,Calm,Calm,-,N/A,,Overcast,0,2013-03-05 16:35:00
11:55 AM,43.7,16.0,33,30.05,10.0,Calm,Calm,-,N/A,,Overcast,0,2013-03-05 16:55:00
12:15 PM,45.1,16.0,31,30.03,10.0,Calm,Calm,-,N/A,,Overcast,0,2013-03-05 17:15:00
12:35 PM,45.7,15.3,30,30.02,10.0,Calm,Calm,-,N/A,,Overcast,0,2013-03-05 17:35:00
12:55 PM,46.0,15.3,29,30.01,10.0,East,3.5,-,N/A,,Overcast,100,2013-03-05 17:55:00
1:15 PM,46.8,15.8,29,30.00,10.0,NE,3.5,-,N/A,,Overcast,50,2013-03-05 18:15:00
1:35 PM,47.7,16.9,29,29.99,10.0,East,6.9,-,N/A,,Overcast,80,2013-03-05 18:35:00
1:55 PM,49.6,17.2,28,29.98,10.0,East,5.8,-,N/A,,Overcast,80,2013-03-05 18:55:00
2:15 PM,48.2,17.1,29,29.97,10.0,Calm,Calm,-,N/A,,Overcast,0,2013-03-05 19:15:00
2:35 PM,48.2,17.1,29,29.96,10.0,East,4.6,-,N/A,,Overcast,100,2013-03-05 19:35:00
2:55 PM,48.0,16.9,29,29.95,10.0,East,9.2,-,N/A,,Mostly Cloudy,80,2013-03-05 19:55:00
3:15 PM,47.3,16.7,30,29.95,10.0,East,6.9,-,N/A,,Mostly Cloudy,80,2013-03-05 20:15:00
3:35 PM,46.9,16.2,29,29.95,10.0,East,6.9,-,N/A,,Overcast,90,2013-03-05 20:35:00
3:55 PM,46.4,16.0,30,29.95,10.0,East,6.9,-,N/A,,Overcast,80,2013-03-05 20:55:00
4:15 PM,46.0,16.0,30,29.95,10.0,East,4.6,-,N/A,,Overcast,90,2013-03-05 21:15:00
4:35 PM,45.7,15.4,30,29.95,10.0,East,10.4,-,N/A,,Mostly Cloudy,90,2013-03-05 21:35:00
4:55 PM,44.1,24.8,47,29.95,10.0,East,10.4,-,N/A,,Mostly Cloudy,90,2013-03-05 21:55:00
5:15 PM,42.8,24.1,48,29.96,10.0,East,8.1,-,N/A,,Overcast,100,2013-03-05 22:15:00
5:35 PM,42.1,22.8,46,29.95,10.0,East,9.2,-,N/A,,Overcast,100,2013-03-05 22:35:00
5:55 PM,41.5,22.5,47,29.95,10.0,East,9.2,-,N/A,,Overcast,90,2013-03-05 22:55:00
6:15 PM,41.2,23.9,50,29.94,10.0,East,10.4,-,N/A,,Overcast,90,2013-03-05 23:15:00
6:35 PM,41.2,23.4,49,29.93,10.0,East,6.9,-,N/A,,Mostly Cloudy,100,2013-03-05 23:35:00
6:55 PM,41.2,21.6,46,29.93,10.0,East,8.1,-,N/A,,Overcast,100,2013-03-05 23:55:00
7:15 PM,40.1,23.9,52,29.93,10.0,ESE,10.4,16.1,N/A,,Unknown,110,2013-03-06 00:15:00
7:35 PM,37.9,27.7,67,29.93,10.0,East,6.9,-,N/A,Snow,Light Snow,90,2013-03-06 00:35:00
7:55 PM,36.7,30.6,78,29.92,7.0,ENE,5.8,-,N/A,Rain,Rain,70,2013-03-06 00:55:00
8:15 PM,36.5,32.0,84,29.91,7.0,ENE,3.5,-,N/A,Rain,Light Rain,70,2013-03-06 01:15:00
8:35 PM,36.1,32.0,85,29.91,7.0,ENE,5.8,-,N/A,Rain,Light Rain,70,2013-03-06 01:35:00
8:55 PM,35.6,32.2,87,29.89,7.0,ENE,5.8,-,N/A,Rain,Rain,70,2013-03-06 01:55:00
9:15 PM,35.6,33.1,91,29.88,7.0,ENE,8.1,-,N/A,Rain,Rain,60,2013-03-06 02:15:00
9:35 PM,35.6,33.8,93,29.86,7.0,ENE,9.2,-,N/A,Rain,Light Rain,60,2013-03-06 02:35:00
9:55 PM,35.8,34.0,93,29.84,7.0,ENE,11.5,17.3,N/A,Rain,Light Rain,70,2013-03-06 02:55:00
10:15 PM,36.0,34.3,94,29.82,7.0,ENE,11.5,-,N/A,Rain,Light Rain,70,2013-03-06 03:15:00
10:35 PM,36.0,34.7,95,29.80,5.0,ENE,12.7,-,N/A,Rain,Light Rain,70,2013-03-06 03:35:00
10:55 PM,36.0,34.7,95,29.79,7.0,NE,6.9,-,N/A,Rain,Light Rain,50,2013-03-06 03:55:00
11:15 PM,36.0,34.7,95,29.79,5.0,ENE,8.1,16.1,N/A,Rain,Light Rain,70,2013-03-06 04:15:00
11:35 PM,36.0,34.7,95,29.78,5.0,ENE,6.9,-,N/A,Rain,Rain,60,2013-03-06 04:35:00
11:55 PM,35.8,34.9,97,29.77,4.0,ENE,8.1,-,N/A,Rain,Rain,60,2013-03-06 04:55:00